Location: Tierra del Sol
(32.6128°N, 116.3319°W)
Time: 22:53:02
(UTC-08:00)

Vanguard 2 - All Passes

Search period start: 19 January 2018 00:00
Search period end: 29 January 2018 00:00
Orbit: 553 x 2940 km, 32.9° (Epoch: 19 January)

Date Brightness Start Highest point End Pass type
(mag) Time Alt. Az. Time Alt. Az. Time Alt. Az.
19 Jan - 02:15:17 10° SW 02:22:11 47° SSE 02:33:30 10° E visible
19 Jan - 04:22:32 10° WSW 04:32:02 86° SSE 04:47:46 10° E visible
19 Jan - 06:31:31 10° W 06:44:10 88° S 07:02:09 10° ESE daylight
19 Jan - 08:41:44 10° WNW 08:56:58 63° SSW 09:14:24 10° SE daylight
19 Jan - 10:54:40 10° W 11:08:41 31° SW 11:22:10 10° SSE daylight
20 Jan - 00:28:48 10° SSE 00:32:25 16° SE 00:36:57 10° E night (unlit)
20 Jan - 02:32:55 10° SW 02:40:01 59° SSE 02:52:05 10° ENE visible
20 Jan - 04:40:38 10° W 04:50:22 90° N 05:06:22 10° E visible
20 Jan - 06:49:43 10° W 07:02:35 83° SSW 07:20:34 10° ESE daylight
20 Jan - 09:00:09 10° W 09:15:07 54° SSW 09:32:02 10° SE daylight
20 Jan - 11:14:25 10° W 11:26:30 23° SW 11:38:13 10° S daylight
21 Jan - 00:45:09 10° S 00:49:52 24° SE 00:56:32 10° E visible
21 Jan - 02:50:44 10° WSW 02:58:02 71° SSE 03:10:38 10° E visible
21 Jan - 04:58:46 10° W 05:08:45 88° N 05:25:00 10° E visible
21 Jan - 07:07:55 10° W 07:20:57 76° SSW 07:38:51 10° ESE daylight
21 Jan - 09:18:42 10° W 09:33:13 45° SSW 09:49:22 10° SSE daylight
21 Jan - 11:35:22 10° WSW 11:44:20 16° SW 11:53:07 10° SSW daylight
22 Jan - 01:02:12 10° SSW 01:07:27 34° SE 01:15:29 10° E visible
22 Jan - 03:08:40 10° WSW 03:16:10 81° SSE 03:29:10 10° E visible
22 Jan - 05:16:55 10° W 05:27:09 90° S 05:43:36 10° E visible
22 Jan - 07:26:10 10° W 07:39:15 67° SSW 07:56:57 10° SE daylight
22 Jan - 09:37:31 10° W 09:51:14 36° SW 10:06:19 10° SSE daylight
23 Jan - 01:19:39 10° SW 01:25:11 46° SSE 01:34:08 10° E visible
23 Jan - 03:26:42 10° W 03:34:24 88° S 03:47:44 10° E visible
23 Jan - 05:35:04 10° W 05:45:31 86° S 06:02:08 10° ESE visible
23 Jan - 07:44:27 10° W 07:57:29 58° SSW 08:14:46 10° SE daylight
23 Jan - 09:56:46 10° W 10:09:15 28° SW 10:22:45 10° S daylight
23 Jan - 23:33:10 10° SSE 23:35:40 13° SE 23:38:36 10° ESE night (unlit)
24 Jan - 01:37:20 10° SW 01:43:03 60° SSE 01:52:39 10° E visible
24 Jan - 03:44:47 10° W 03:52:40 88° N 04:06:19 10° E visible
24 Jan - 05:53:13 10° W 06:03:51 79° SSW 06:20:32 10° ESE visible
24 Jan - 08:02:51 10° W 08:15:41 48° SSW 08:32:18 10° SE daylight
24 Jan - 10:16:47 10° W 10:27:15 20° SW 10:38:22 10° S daylight
24 Jan - 23:49:30 10° S 23:53:13 22° SE 23:58:10 10° E night (unlit)
25 Jan - 01:55:11 10° WSW 02:01:04 73° SSE 02:11:08 10° E visible
25 Jan - 04:02:54 10° W 04:10:59 89° N 04:24:54 10° E visible
25 Jan - 06:11:22 10° W 06:22:08 70° SSW 06:38:46 10° ESE visible
25 Jan - 08:21:27 10° W 08:33:51 39° SSW 08:49:28 10° SSE daylight
25 Jan - 10:38:34 10° WSW 10:45:19 13° SW 10:52:19 10° SSW daylight
26 Jan - 00:06:38 10° SSW 00:10:53 32° SSE 00:17:00 10° E night (unlit)
26 Jan - 02:13:09 10° WSW 02:19:11 84° S 02:29:36 10° E visible
26 Jan - 04:21:00 10° W 04:29:16 88° S 04:43:29 10° E visible
26 Jan - 06:29:33 10° W 06:40:24 61° SSW 06:56:46 10° SE daylight
26 Jan - 08:40:23 10° W 08:52:00 31° SW 09:06:11 10° SSE daylight
27 Jan - 00:24:08 10° SW 00:28:41 45° SSE 00:35:33 10° E night (unlit)
27 Jan - 02:31:11 10° W 02:37:23 90° NNW 02:48:06 10° E visible
27 Jan - 04:39:05 10° W 04:47:32 82° SSW 05:01:57 10° ESE visible
27 Jan - 06:47:50 10° W 06:58:38 51° SSW 07:14:29 10° SE daylight
27 Jan - 08:59:53 10° W 09:10:09 23° SW 09:22:15 10° S daylight
27 Jan - 22:37:19 10° SSE 22:39:11 13° SE 22:41:15 10° ESE night (unlit)
28 Jan - 00:41:53 10° WSW 00:46:36 61° SSE 00:53:58 10° E night (unlit)
28 Jan - 02:49:15 10° W 02:55:36 88° N 03:06:37 10° E visible
28 Jan - 04:57:11 10° W 05:05:48 73° SSW 05:20:17 10° ESE visible
28 Jan - 07:06:17 10° W 07:16:52 41° SSW 07:31:51 10° SSE daylight
28 Jan - 09:20:29 10° WSW 09:28:21 16° SW 09:37:10 10° S daylight
28 Jan - 22:53:44 10° SSW 22:56:53 21° SE 23:00:41 10° E night (unlit)
